Погода в Вожеге

Россия / Вологодская область     60°28′18″N   40°12′58″E
темп.,
°C
ветер,
м/с
пор.,
м/с
влажн.,
%
обл.,
%
осадки,
мм/ч
давл.,
гПа
погр.,
м
26 февраля, пт
пт2600:00−18ююв239778 0.0 101183
03:00−17юв379764 0.0 1010143
06:00−14юв4895100 0.1 1006250
09:00−13юв4895100 0.3 1002266
12:00−12вюв41095100 2.5 999345
15:00−11вюв41095100 6.0 997492
18:00−13в4895100 2.0 997491
21:00−13всв3895100 2.9 1000485
27 февраля, сб
сб2700:00−15св2695100 0.3 1002210
03:00−17ссв239698 0.3 100567
06:00−19ссв229762 0.0 100623
09:00−17ссв139539 0.0 100891
12:00−12с238945 0.0 1010322
15:00−10с239273 0.0 1011411
18:00−12ссз1296100 0.1 101220
21:00−13ссз119794 0.1 101320
28 февраля, вс
вс2800:00−13зсз119780 0.1 101320
03:00−12зсз129777 0.2 101420
06:00−13зсз119886 0.1 101421
09:00−9сз119792 0.2 101465
12:00−5ссз139294 0.1 1014385
15:00−4ссз129297 0.2 1015452
18:00−5ссз1194100 0.1 101621
21:00−5юз1195100 0.1 101721
1 марта, пн
пн100:00−5зюз2496100 0.1 1018142
03:00−7юз2596100 0.1 1018120
06:00−9юз379685 0.0 1016189
09:00−6юз389590 0.1 1014335
12:00−3юз4896100 0.1 1012401
15:00−1юз51197100 1.8 1009583
18:00+1зюз41098100 2.8 1005547
21:00+1зсз51299100 3.5 1004722
2 марта, вт
вт200:000зсз4119196 0.1 1003790
03:00−1зсз4119298 0.2 1003805
06:00−1з4109694 0.3 1003573
09:00−1сз389696 1.2 1003711
12:000зсз489099 0.5 1003789
15:00−1сз4894100 0.9 1004751
18:00−2сз41092100 0.4 1006587
21:00−5сз399592 0.4 1007321